Lapse_Rate
6.1 5.5 4.7 3.9 3.9 3.7 3.4 3.6 4.0 4.1 4.2 4.2 3.8 4.0 4.3 4.1 4.3 3.1 3.9 4.2 3.9 3.1 2.3 2.0 2.0 2.5 3.8 5.5 6.6 7.7 7.8 7.0
6.8 6.5 5.9 5.3 4.8 4.0 3.8 3.8 3.8 3.8 3.8 3.2 3.4 3.7 4.5 3.3 3.5 4.0 3.6 3.7 3.5 2.9 2.1 1.9 2.0 3.5 4.9 4.4 6.2 7.5 8.0 7.0
7.4 7.2 6.6 6.3 6.2 4.7 4.0 4.2 3.8 3.7 3.3 3.2 3.5 4.6 4.8 5.2 4.4 4.6 3.9 3.2 3.1 2.3 2.1 2.3 3.1 4.5 5.2 5.3 5.6 5.0 7.0 6.3
7.9 7.7 7.7 7.1 6.9 4.6 5.4 5.1 4.8 5.2 4.6 4.5 4.5 4.9 4.7 4.7 3.8 4.2 3.8 2.7 2.6 1.9 2.2 3.7 5.4 6.0 6.6 6.5 4.6 3.9 4.0 5.7
7.3 7.5 7.5 7.3 6.6 5.2 5.0 4.7 5.2 4.7 3.9 4.6 4.8 5.3 4.8 3.8 3.9 4.3 3.8 2.7 2.9 2.3 2.7 4.2 6.4 7.3 7.6 5.5 4.6 3.4 3.1 4.1
7.9 7.3 7.1 6.8 5.2 6.1 4.3 4.2 4.3 3.7 4.0 4.3 4.3 5.4 5.6 4.6 4.4 4.6 4.5 3.8 3.2 3.5 4.7 6.9 6.3 6.3 7.9 7.1 5.0 4.0 3.0 4.5
7.9 7.7 7.0 6.1 4.9 4.1 4.5 3.8 3.7 3.6 4.0 4.6 4.9 5.7 5.8 5.7 5.5 5.6 5.3 4.3 4.3 4.3 4.5 5.7 6.0 4.9 5.8 6.8 5.5 4.3 3.6 4.1
7.0 7.3 6.6 5.2 4.1 4.5 4.4 3.4 3.0 3.0 3.0 3.8 5.2 6.0 5.8 5.4 5.6 4.1 3.7 4.2 4.1 3.6 3.8 4.8 5.7 7.0 6.2 7.4 6.9 5.7 4.6 3.9
4.9 6.4 6.0 5.0 3.9 4.1 4.1 3.2 2.3 2.7 3.0 3.2 4.1 5.9 5.7 4.6 3.7 3.2 3.3 3.2 3.7 4.4 5.7 6.7 6.2 6.9 5.4 5.9 7.1 6.4 5.3 2.9
4.5 5.3 3.8 5.1 4.5 4.2 3.8 2.7 2.0 2.8 3.2 3.5 4.6 5.7 6.0 4.0 3.1 3.2 3.7 3.6 4.4 5.1 6.6 7.3 5.9 5.6 5.0 4.9 4.9 5.7 6.7 4.7
3.7 4.5 4.5 4.1 4.2 4.3 4.1 3.7 3.5 3.8 4.0 4.3 4.7 4.0 3.9 1.9 2.5 2.7 3.7 4.7 5.7 6.5 7.1 6.8 6.8 6.1 6.2 5.6 5.3 5.7 6.2 5.9
3.0 3.3 3.7 3.5 3.5 3.3 2.8 3.1 2.7 2.1 2.6 2.8 1.7 1.9 1.8 3.0 3.5 3.5 4.5 5.7 6.7 7.3 6.8 7.0 6.3 6.4 7.1 5.7 5.6 6.2 7.0 4.7
2.9 2.4 2.8 3.5 2.4 1.8 1.5 2.5 2.6 2.6 2.9 2.5 1.9 2.2 2.4 3.7 5.0 4.4 6.2 5.7 7.0 6.6 7.1 6.9 6.8 6.5 6.1 6.5 6.3 6.8 6.1 4.6
3.8 3.4 2.7 2.9 2.6 2.5 2.3 2.2 2.0 2.6 2.2 2.4 2.5 2.9 3.3 4.6 5.1 5.3 5.4 6.6 6.6 6.9 7.1 7.1 6.6 5.6 5.0 4.7 6.2 6.6 7.4 7.5
5.2 3.7 3.3 3.4 3.2 2.8 2.3 2.7 3.0 3.3 3.2 3.3 2.8 3.3 3.5 5.1 5.9 5.3 4.8 6.7 7.0 6.7 6.5 6.4 5.9 5.6 4.4 4.2 6.1 6.2 6.9 7.2
5.5 4.4 4.2 4.0 4.4 3.7 3.9 4.0 4.1 3.9 3.8 3.5 3.0 3.7 3.7 4.7 5.4 5.6 5.8 7.1 6.8 6.7 6.7 6.1 4.7 4.7 4.5 5.8 4.6 3.5 5.8 6.9
5.7 5.4 4.9 4.6 4.6 4.4 4.4 4.8 5.0 5.0 5.2 5.6 5.2 4.6 4.9 4.9 5.6 6.1 5.5 6.8 6.4 6.5 6.5 6.3 4.7 4.8 4.3 5.5 4.6 4.3 3.4 5.7
5.6 5.4 6.4 4.9 4.8 4.8 4.3 5.0 5.5 5.2 5.6 6.4 6.1 5.3 5.5 5.9 6.0 6.0 5.5 6.5 6.2 6.3 5.9 6.2 5.2 5.4 4.8 5.7 5.1 5.5 5.7 4.1
7.0 6.5 5.3 5.8 4.8 4.1 4.2 4.6 5.7 5.6 5.9 6.4 6.7 6.5 6.2 5.8 6.3 6.2 5.4 5.7 5.9 5.9 5.7 6.2 6.1 6.1 6.1 6.0 5.4 5.8 6.2 5.0
7.2 7.4 7.1 6.2 4.9 4.2 4.3 4.6 5.1 5.0 5.1 5.9 6.5 6.1 4.3 5.3 6.2 6.6 6.0 5.3 5.8 6.2 6.4 6.3 6.6 6.2 6.2 6.1 5.7 5.4 5.7 5.4
Wind_Speed
12 15 19 19 20 19 20 20 20 21 22 21 20 19 20 22 17 19 15 12 12 12 12 10 8 6 4 4 10 19 22 19
12 13 15 15 15 19 21 22 23 23 24 24 24 22 22 24 18 15 17 17 15 13 12 11 9 5 3 10 21 13 22 22
10 11 13 16 15 15 20 20 21 24 26 27 23 17 19 20 16 15 16 20 16 16 13 10 10 7 3 14 21 19 23 21
11 11 12 13 14 18 17 18 19 17 17 20 16 18 16 16 20 17 16 22 18 18 15 15 10 6 3 15 18 20 22 17
12 12 13 13 9 11 11 14 14 15 17 16 16 16 18 18 14 14 15 19 13 13 13 13 11 7 3 20 20 20 19 17
15 15 11 11 7 8 6 7 10 9 14 16 15 9 12 12 12 15 13 13 13 12 9 9 13 13 11 19 22 18 18 17
13 14 13 11 12 9 9 8 6 12 15 15 16 9 8 11 11 14 12 14 12 6 7 5 4 16 17 18 19 21 19 18
14 12 10 11 10 14 10 8 11 12 11 12 13 16 10 7 4 6 8 13 13 11 7 6 2 2 9 17 19 21 17 21
18 11 9 14 12 11 9 8 11 8 10 15 12 13 13 10 7 5 7 12 14 11 8 9 4 7 9 13 16 20 19 22
16 12 8 12 13 11 8 9 7 7 11 12 10 7 16 12 7 6 12 12 10 5 5 7 6 5 5 5 7 12 13 19
18 13 14 9 11 9 10 11 10 8 14 15 15 13 13 12 7 8 15 10 8 9 7 9 9 6 6 5 5 4 8 13
16 13 12 8 6 7 5 8 7 6 6 9 15 14 17 12 9 10 14 9 8 9 8 9 10 10 10 7 4 5 7 10
18 15 13 9 4 6 5 8 8 9 9 14 17 16 17 14 10 10 11 9 10 10 10 11 10 10 8 7 4 5 5 5
15 15 15 12 9 6 3 7 6 9 9 11 17 19 20 14 11 11 12 10 11 12 12 9 9 11 9 7 4 3 2 4
15 15 14 13 11 7 2 6 3 7 10 11 13 18 20 17 10 13 13 11 11 14 14 14 12 9 15 4 4 4 6 2
14 14 16 13 13 10 12 9 9 9 10 10 12 15 17 17 12 15 15 10 13 12 12 13 13 12 11 5 4 9 4 5
9 11 16 16 16 12 10 11 9 7 10 13 14 14 16 17 14 15 15 11 13 15 15 12 13 11 9 3 5 7 7 5
10 11 9 14 15 14 13 13 11 8 9 9 11 12 12 15 15 14 14 12 15 13 14 15 13 12 8 7 5 6 8 5
3 6 9 8 12 13 14 14 14 13 12 12 14 12 10 14 14 14 14 12 12 14 15 13 13 12 11 7 4 4 6 5
6 5 7 6 9 11 13 15 11 9 10 8 10 12 13 15 13 12 14 14 14 14 12 11 10 8 11 8 4 5 4 10
Wind_Direction
145 166 167 165 164 161 154 150 146 139 134 130 120 116 117 104 97 110 126 127 126 123 115 104 85 75 58 18 2 44 95 98
157 164 175 175 173 157 154 148 145 135 128 124 123 121 114 111 120 136 140 135 129 121 109 105 98 100 110 359 13 354 94 87
168 172 173 176 168 158 147 143 136 132 130 129 129 126 121 133 142 146 132 125 127 124 117 115 121 140 99 41 51 49 76 87
186 182 183 177 174 156 159 154 150 150 143 143 136 136 138 123 129 132 127 126 131 131 138 144 130 143 158 91 79 63 63 70
196 192 187 183 166 163 162 160 164 149 155 149 146 141 129 129 133 135 138 129 135 139 160 176 140 129 347 106 98 85 72 63
197 196 199 167 154 157 146 143 147 149 166 143 151 147 155 148 156 156 167 159 154 153 187 139 135 113 78 113 107 102 91 72
209 193 190 161 160 151 157 153 156 155 161 168 164 155 161 154 170 156 160 131 143 149 116 100 129 132 109 92 114 105 98 86
192 211 170 158 156 160 162 159 159 155 157 179 184 160 158 158 123 132 126 139 128 125 122 107 103 90 102 117 123 113 110 96
187 179 189 161 158 158 160 163 159 162 165 172 183 165 159 148 141 135 139 135 128 138 160 134 118 82 74 82 92 117 127 124
180 175 166 173 166 168 164 163 159 167 169 171 172 151 154 150 155 159 161 149 163 163 155 136 115 104 93 82 87 100 113 124
172 185 176 185 175 167 169 173 168 177 173 170 172 149 141 135 149 160 152 163 176 155 146 142 132 122 114 102 99 109 116 88
163 172 176 172 168 158 148 175 160 153 159 156 153 156 148 146 161 170 176 176 180 158 154 146 144 144 128 110 91 91 83 101
162 161 169 165 162 151 155 180 175 176 175 165 168 167 167 170 182 172 181 169 172 152 151 149 148 134 127 105 95 95 107 116
157 162 166 176 176 187 173 184 198 180 173 170 171 173 179 181 173 174 178 174 167 163 158 154 153 151 149 127 144 86 104 157
155 168 167 178 177 173 152 189 193 198 186 180 186 181 176 182 173 176 184 185 172 170 168 165 159 172 173 152 147 153 141 115
170 170 171 177 176 180 194 200 194 201 196 186 183 182 181 183 184 178 186 181 171 176 170 169 167 171 189 249 73 130 154 163
12 200 179 174 179 180 193 216 219 204 200 183 184 191 193 187 186 184 184 179 176 175 174 172 175 175 183 173 129 140 139 149
360 347 206 179 181 183 184 206 222 213 208 198 190 183 188 197 188 185 185 182 177 175 176 173 176 185 186 177 158 167 155 155
338 325 316 181 185 184 190 199 216 225 213 198 188 182 190 195 190 189 183 181 173 173 176 182 183 184 176 169 163 190 175 133
283 268 264 181 189 203 204 206 211 215 215 213 201 191 182 187 189 195 183 182 176 180 176 182 183 173 173 167 162 185 148 151